STARLINK-32747, 62600

Orbit data source: Space-Track

STARLINK-32747, 62600 is a payload satellite owned by SpaceX/Seattle (US) in LEO that was launched on Mon, 13 Jan 2025 UTC via an FALCON 9 launch vehicle from the Air Force Eastern Test Range (AFETR). Payload-class satellites include a variety of spacecraft equipped with specific instruments for various scientific and technological missions. These include communications satellites like Starlink; space stations such as the ISS; scientific satellites like the Hubble; Earth observation satellites from companies like Planet Labs, Umbra, and HawkEye 360; GPS; miniature CubeSats for education and research; and military/defense satellites.

Loading next visibility...
Identifier
62600, 2025-008P
Orbit
LEO
Last TLE update
5 hours ago
Origin
Manufacturer
SpaceX/Seattle
Mission
Operational Commercial Communications
Bus & Motor
STARLINK V2M, Unknown motor
Mass
730 kg wet, ~700 kg dry
Launch date (UTC)
2025-01-13 (6 months ago)
Launch vehicle
FALCON 9
Launch site
Air Force Eastern Test Range (AFETR)
Object type
Payload
Rocket body
Debris
Shape & HBR
Box + 2 Pan, 29 m
Radar Cross Section
33.884 m², Large (>1 m²)

Expand to show TLE details & history

TLE from 5 hours ago
0 STARLINK-32747
1 62600U 25008P   25182.23334670  .00014709  00000-0  54274-3 0  9991
2 62600  42.9964 258.3399 0002380 155.7316 204.3648 15.27592025 27105
Epoch: 2025-07-01T05:36Z
TLE epoch observation values (Epoch: 2025-07-01T05:36:01.154Z)
Latitude
-0.00004°
Longitude
-105.19669°
Altitude
484.275 km
Speed
7.624 km/s
True Right ascension
17h 13m 21s
True Declination
0° 00' 00"
Sunlit
Object was in full shadow at epoch
Visualization orbit readout
Latitude
-23.35057°
Longitude
-133.68553°
Altitude
490.153 km
Speed
7.62 km/s
Apparent Right ascension
12h 58m 54s
Apparent Declination
-38° 44' 02"
Sunlit
Object is in full shadow
Visualization observer readout
Local Sidereal Time
21:47:38
Azimuth
256.031° W
Elevation
-53.442°
Doppler factor
1
Orbital elements
Apogee altitude
486.592 km
Perigee altitude
483.325 km
Semi-major axis
6,863.096 km
Eccentricity
0.00024
Inclination
42.9964°
RAAN
258.3399°
Arg. of periapsis
155.7316°
True anomaly
Unknown
Mean anomaly
204.3648°
Eccentric anomaly
Unknown
Mean motion
3.81736 °/min
Orbital period
94.31 mins
BSTAR
0.00054274
Loading maneuver chart data...
Loading SW <> Apogee altitude chart data...
Loading historical data...
Loading historical data...
Loading historical data...
Loading historical data...
Loading historical data...
Loading historical data...
Loading historical data...

STARLINK-32747 Visibility forecast

Observer location: undefined°, undefined°

Span
Click to sort rows by Start time (UTC) header in descending order
Start Az.
Max El. time (UTC)
Max El. Az.
Max El.
End time (UTC)
End Az.
6 mins2025-07-01 10:36:14.106Z271.854° WNW2025-07-01 10:39:14.106Z331.678° NNW40.028°2025-07-01 10:42:14.106Z68.049° E
6 mins2025-07-01 12:16:14.106Z293.695° NW2025-07-01 12:18:14.106Z334.885° NNW38.763°2025-07-01 12:22:14.106Z89.163° E
6 mins2025-07-01 13:55:14.106Z276.068° WNW2025-07-01 13:57:14.106Z231.108° WSW36.761°2025-07-01 14:01:14.106Z129.798° SE
7 mins2025-07-02 08:29:14.106Z228.926° WSW2025-07-02 08:33:14.106Z125.434° SE35.769°2025-07-02 08:36:14.106Z78.55° E
|